Location: Boltonville
(43.5274°N, 88.1004°W)
Time: 07:25:26
(UTC+00:00)

HTV-X1 - Visible Passes

Search period start: 12 June 2026 00:00
Search period end: 22 June 2026 00:00
Orbit: 368 x 378 km, 51.6° (Epoch: 26 May)

Date Brightness Start Highest point End Pass type
(mag) Time Alt. Az. Time Alt. Az. Time Alt. Az.
19 Jun ? 08:52:06 10° SE 08:52:34 10° SE 08:53:01 10° ESE visible
20 Jun ? 09:21:28 10° SSW 09:24:17 34° SE 09:27:06 10° ENE visible
21 Jun ? 08:20:13 14° SSE 08:20:52 15° SE 08:22:41 10° E visible
